Sturgis, MI

12:54 PM EDT on June 29, 2017 (GMT -0400)
Kirsch Municipal

Weather History for KIRS - November, 2013

Change the Weather History Date:

Sunday, November 24, 2013

  Actual Average (KHAI) Record (KHAI)
Temperature  
Mean Temperature 20 °F -  
Max Temperature 24 °F 44 °F 62 °F (1973)
Min Temperature 15 °F 28 °F -4 °F (1950)
Degree Days  
Heating Degree Days 46    
Moisture  
Dew Point 13 °F    
Average Humidity 78    
Maximum Humidity 93    
Minimum Humidity 63    
Precipitation  
Precipitation 0.00 in - - ()
Sea Level Pressure  
Sea Level Pressure 30.53 in    
Wind  
Wind Speed 5 mph (West)    
Max Wind Speed 13 mph    
Max Gust Speed 16 mph    
Visibility 8 miles    
Events Snow    
Averages and records for this station are not official NWS values.
T = Trace of Precipitation, MM = Missing Value Source: NWS Daily Summary

Daily Weather History Graph

Daily Weather History Graph

Search for Another Location

Airport or City:

Trip Planner

Search our weather history database for the weather conditions in past years. The results will help you decide how hot, cold, wet, or windy it might be!

Date:

Astronomy

Nov. 24, 2013 Rise Set
Actual Time 7:42 AM EST 5:14 PM EST
Civil Twilight 7:11 AM EST 5:45 PM EST
Nautical Twilight 6:37 AM EST 6:19 PM EST
Astronomical Twilight 6:04 AM EST 6:52 PM EST
Moon 11:42 PM EST (11/24) 12:27 PM EST (11/24)
Length of Visible Light 10h 33m
Length of Day
9h 32m
Waning Gibbous, 61% of the Moon is Illuminated
Nov 24
Waning Gibbous
Nov 25
Last Quarter
Dec 2
New
Dec 9
First Quarter
Dec 17
Full

Hourly Weather History & Observations

Time (EST) Temp. Windchill Dew Point Humidity Pressure Visibility Wind Dir Wind Speed Gust Speed Precip Events Conditions
12:15 AM 17.6 °F 10.7 °F 10.4 °F 73% 30.55 in 10.0 mi NW 4.6 mph - N/A   Mostly Cloudy
12:35 AM 15.8 °F 10.2 °F 10.4 °F 79% 30.55 in 10.0 mi WNW 3.5 mph - N/A   Scattered Clouds
12:54 AM 15.8 °F 8.6 °F 10.4 °F 79% 30.55 in 10.0 mi WNW 4.6 mph - N/A   Mostly Cloudy
1:15 AM 15.8 °F 8.6 °F 10.4 °F 79% 30.55 in 10.0 mi WNW 4.6 mph - N/A   Overcast
1:35 AM 15.8 °F 8.6 °F 10.4 °F 79% 30.55 in 10.0 mi WNW 4.6 mph - N/A   Mostly Cloudy
1:54 AM 15.8 °F 8.6 °F 12.2 °F 86% 30.55 in 10.0 mi WNW 4.6 mph - N/A   Mostly Cloudy
2:15 AM 15.8 °F - 12.2 °F 86% 30.55 in 10.0 mi Calm Calm - N/A   Overcast
2:35 AM 15.8 °F 10.2 °F 12.2 °F 86% 30.55 in 10.0 mi WNW 3.5 mph - N/A   Overcast
2:54 AM 15.8 °F 10.2 °F 10.4 °F 79% 30.56 in 10.0 mi WNW 3.5 mph - N/A   Overcast
3:15 AM 15.8 °F 7.2 °F 12.2 °F 86% 30.56 in 10.0 mi NW 5.8 mph - N/A   Overcast
3:35 AM 17.6 °F 9.3 °F 10.4 °F 73% 30.56 in 10.0 mi NNW 5.8 mph - N/A   Overcast
3:54 AM 17.6 °F 10.7 °F 10.4 °F 73% 30.56 in 10.0 mi NW 4.6 mph - N/A   Overcast
4:15 AM 17.6 °F 10.7 °F 10.4 °F 73% 30.56 in 10.0 mi WNW 4.6 mph - N/A   Overcast
4:35 AM 17.6 °F 9.3 °F 10.4 °F 73% 30.56 in 10.0 mi WNW 5.8 mph - N/A   Overcast
4:54 AM 17.6 °F 10.7 °F 10.4 °F 73% 30.56 in 10.0 mi NW 4.6 mph - N/A   Overcast
5:15 AM 17.6 °F 10.7 °F 10.4 °F 73% 30.56 in 10.0 mi NW 4.6 mph - N/A   Overcast
5:35 AM 17.6 °F 10.7 °F 10.4 °F 73% 30.56 in 10.0 mi NW 4.6 mph - N/A Snow Light Snow
5:54 AM 17.6 °F 9.3 °F 10.4 °F 73% 30.56 in 10.0 mi WNW 5.8 mph - N/A   Overcast
6:15 AM 17.6 °F 12.3 °F 12.2 °F 79% 30.56 in 10.0 mi WNW 3.5 mph - N/A Snow Light Snow
6:35 AM 15.8 °F 8.6 °F 12.2 °F 86% 30.56 in 10.0 mi NW 4.6 mph - N/A   Overcast
6:54 AM 15.8 °F - 12.2 °F 86% 30.57 in 10.0 mi Calm Calm - N/A   Overcast
7:15 AM 17.6 °F - 12.2 °F 79% 30.57 in 10.0 mi Calm Calm - N/A   Overcast
7:35 AM 15.8 °F - 12.2 °F 86% 30.57 in 10.0 mi Calm Calm - N/A Snow Light Snow
7:54 AM 15.8 °F - 12.2 °F 86% 30.58 in 10.0 mi Calm Calm - N/A   Overcast
8:15 AM 17.6 °F - 12.2 °F 79% 30.58 in 10.0 mi Calm Calm - N/A Snow Light Snow
8:35 AM 17.6 °F - 12.2 °F 79% 30.59 in 5.0 mi Calm Calm - N/A Snow Light Snow
8:54 AM 17.6 °F - 12.2 °F 79% 30.59 in 4.0 mi Calm Calm - N/A Snow Light Snow
9:15 AM 17.6 °F - 14.0 °F 86% 30.60 in 2.0 mi Calm Calm - N/A Snow Light Snow
9:35 AM 17.6 °F - 15.8 °F 93% 30.60 in 3.0 mi Calm Calm - N/A Snow Light Snow
9:54 AM 19.4 °F - 15.8 °F 86% 30.61 in 2.5 mi Calm Calm - N/A Snow Light Snow
10:15 AM 19.4 °F 14.3 °F 15.8 °F 86% 30.61 in 2.5 mi SW 3.5 mph - N/A Snow Light Snow
10:35 AM 19.4 °F 12.8 °F 15.8 °F 86% 30.61 in 2.5 mi WSW 4.6 mph - N/A Snow Light Snow
10:54 AM 19.4 °F 11.5 °F 15.8 °F 86% 30.61 in 2.0 mi WSW 5.8 mph - N/A Snow Light Snow
11:15 AM 19.4 °F 11.5 °F 15.8 °F 86% 30.61 in 2.5 mi West 5.8 mph - N/A Snow Light Snow
11:35 AM 19.4 °F 12.8 °F 15.8 °F 86% 30.60 in 4.0 mi West 4.6 mph - N/A Snow Light Snow
11:54 AM 21.2 °F 12.6 °F 15.8 °F 80% 30.59 in 2.5 mi WSW 6.9 mph - N/A Snow Light Snow
12:15 PM 21.2 °F 12.6 °F 17.6 °F 86% 30.58 in 2.5 mi West 6.9 mph - N/A Snow Light Snow
12:35 PM 23.0 °F 17.0 °F 17.6 °F 80% 30.57 in 5.0 mi WNW 4.6 mph - N/A Snow Light Snow
12:54 PM 23.0 °F 15.8 °F 17.6 °F 80% 30.56 in 10.0 mi West 5.8 mph - N/A   Overcast
1:15 PM 21.2 °F 12.6 °F 15.8 °F 80% 30.56 in 5.0 mi West 6.9 mph - N/A Snow Light Snow
1:35 PM 23.0 °F 12.4 °F 15.8 °F 74% 30.55 in 4.0 mi West 10.4 mph - N/A Snow Light Snow
1:54 PM 24.8 °F 14.6 °F 17.6 °F 74% 30.54 in 10.0 mi West 10.4 mph - N/A   Scattered Clouds
2:15 PM 24.8 °F 13.4 °F 15.8 °F 69% 30.53 in 10.0 mi West 12.7 mph 16.1 mph N/A   Overcast
2:35 PM 23.0 °F 12.4 °F 17.6 °F 80% 30.52 in 2.5 mi WSW 10.4 mph - N/A Snow Light Snow
2:54 PM 21.2 °F 10.1 °F 19.4 °F 93% 30.52 in 2.5 mi West 10.4 mph - N/A Snow Light Snow
3:15 PM 24.8 °F 13.4 °F 17.6 °F 74% 30.52 in 10.0 mi West 12.7 mph 16.1 mph N/A   Overcast
3:35 PM 23.0 °F 14.7 °F 15.8 °F 74% 30.53 in 10.0 mi WNW 6.9 mph 16.1 mph N/A Snow Light Snow
3:54 PM 23.0 °F 15.8 °F 14.0 °F 68% 30.53 in 10.0 mi WNW 5.8 mph - N/A   Mostly Cloudy
4:15 PM 23.0 °F 12.4 °F 12.2 °F 63% 30.53 in 10.0 mi West 10.4 mph - N/A   Scattered Clouds
4:35 PM 23.0 °F 14.7 °F 12.2 °F 63% 30.52 in 10.0 mi West 6.9 mph - N/A   Clear
4:54 PM 23.0 °F 14.7 °F 12.2 °F 63% 30.52 in 10.0 mi West 6.9 mph - N/A   Clear
5:15 PM 21.2 °F 13.6 °F 10.4 °F 63% 30.51 in 10.0 mi West 5.8 mph - N/A   Clear
5:35 PM 21.2 °F 16.4 °F 12.2 °F 68% 30.51 in 10.0 mi West 3.5 mph - N/A   Clear
5:55 PM 19.4 °F - 12.2 °F 74% 30.50 in 10.0 mi Calm Calm - N/A   Clear
6:15 PM 19.4 °F 12.8 °F 12.2 °F 74% 30.49 in 10.0 mi SW 4.6 mph - N/A   Clear
6:34 PM 19.4 °F 14.3 °F 12.2 °F 74% 30.49 in 10.0 mi SW 3.5 mph - N/A   Clear
6:55 PM 17.6 °F 10.7 °F 12.2 °F 79% 30.49 in 10.0 mi SSW 4.6 mph - N/A   Clear
7:15 PM 17.6 °F 9.3 °F 12.2 °F 79% 30.47 in 10.0 mi SSW 5.8 mph - N/A   Clear
7:34 PM 17.6 °F 9.3 °F 12.2 °F 79% 30.47 in 10.0 mi SSW 5.8 mph - N/A   Clear
7:55 PM 17.6 °F 10.7 °F 12.2 °F 79% 30.47 in 10.0 mi SSW 4.6 mph - N/A   Clear
8:15 PM 17.6 °F 12.3 °F 12.2 °F 79% 30.46 in 10.0 mi SW 3.5 mph - N/A   Clear
8:34 PM 17.6 °F 12.3 °F 12.2 °F 79% 30.45 in 10.0 mi SW 3.5 mph - N/A   Clear
8:55 PM 15.8 °F 8.6 °F 10.4 °F 79% 30.45 in 10.0 mi SSW 4.6 mph - N/A   Clear
9:15 PM 15.8 °F 8.6 °F 12.2 °F 86% 30.45 in 10.0 mi SW 4.6 mph - N/A   Clear
9:34 PM 15.8 °F 7.2 °F 12.2 °F 86% 30.44 in 10.0 mi SSW 5.8 mph - N/A   Clear
9:55 PM 17.6 °F 8.2 °F 12.2 °F 79% 30.43 in 10.0 mi SSW 6.9 mph - N/A   Clear
10:15 PM 17.6 °F 7.3 °F 10.4 °F 73% 30.43 in 10.0 mi SSW 8.1 mph - N/A   Clear
10:34 PM 17.6 °F 8.2 °F 10.4 °F 73% 30.43 in 10.0 mi SW 6.9 mph - N/A   Clear
10:55 PM 17.6 °F 7.3 °F 10.4 °F 73% 30.42 in 10.0 mi SSW 8.1 mph - N/A   Clear
11:15 PM 17.6 °F 7.3 °F 8.6 °F 68% 30.41 in 10.0 mi SSW 8.1 mph - N/A   Clear
11:34 PM 17.6 °F 6.4 °F 8.6 °F 68% 30.41 in 10.0 mi SW 9.2 mph - N/A   Clear
11:55 PM 17.6 °F 8.2 °F 8.6 °F 68% 30.40 in 10.0 mi SW 6.9 mph - N/A   Clear